This is the latest recevied weather packets stored in our database for station/object K3SV. If no packets are shown the sender has not sent any weather packets the latest 10 day(s).
| Time | Temp. | Humidity | Pressure | Rain* | Wind** | Luminosity | Snow |
|---|---|---|---|---|---|---|---|
| 1778074609 | 25.56° C | 81% | 1017.3 hPa | 0 mm | - | 277 W/m² | - |
| 1778074306 | 25° C | 83% | 1017.1 hPa | 0 mm | - | 285 W/m² | - |
| 1778074003 | 24.44° C | 83% | 1017.2 hPa | 0 mm | - | 270 W/m² | - |
| 1778073699 | 24.44° C | 84% | 1017.1 hPa | 0 mm | - | 192 W/m² | - |
| 1778073397 | 23.89° C | 85% | 1017.1 hPa | 0 mm | - | 215 W/m² | - |
| 1778073093 | 23.89° C | 85% | 1017.1 hPa | 0 mm | - | 178 W/m² | - |
| 1778072790 | 23.89° C | 85% | 1017 hPa | 0 mm | - | 185 W/m² | - |
| 1778072488 | 23.89° C | 86% | 1017.1 hPa | 0 mm | - | 209 W/m² | - |
| 1778072186 | 23.89° C | 86% | 1016.9 hPa | 0 mm | - | 231 W/m² | - |
| 1778071883 | 23.89° C | 86% | 1016.9 hPa | 0 mm | - | 249 W/m² | - |
| 1778071581 | 23.33° C | 87% | 1016.9 hPa | 0 mm | - | 195 W/m² | - |
| 1778071279 | 23.33° C | 86% | 1017 hPa | 0 mm | - | 159 W/m² | - |
| 1778070976 | 23.33° C | 86% | 1016.7 hPa | 0 mm | - | 183 W/m² | - |
| 1778070675 | 22.78° C | 87% | 1016.5 hPa | 0 mm | - | 146 W/m² | - |
| 1778070371 | 22.78° C | 87% | 1016.6 hPa | 0 mm | - | 127 W/m² | - |
| 1778070069 | 22.78° C | 87% | 1016.4 hPa | 0 mm | - | 139 W/m² | - |
| 1778069766 | 22.22° C | 87% | 1016.5 hPa | 0 mm | - | 133 W/m² | - |
| 1778069462 | 21.67° C | 88% | 1016.5 hPa | 0 mm | - | 130 W/m² | - |
| 1778069161 | 21.11° C | 90% | 1016.4 hPa | 0 mm | - | 124 W/m² | - |
| 1778068857 | 20° C | 92% | 1016.4 hPa | 0 mm | - | 95 W/m² | - |
| 1778068555 | 19.44° C | 93% | 1016.5 hPa | 0 mm | - | 83 W/m² | - |
| 1778068254 | 18.33° C | 93% | 1016.2 hPa | 0 mm | - | 66 W/m² | - |
| 1778067951 | 18.33° C | 94% | 1016.4 hPa | 0 mm | - | 50 W/m² | - |
| 1778067649 | 17.78° C | 94% | 1016.3 hPa | 0 mm | - | 42 W/m² | - |
| 1778067346 | 17.78° C | 94% | 1016.2 hPa | 0 mm | - | 33 W/m² | - |
* Rain latest hour (hover to see other rain measurements)
** Current wind speed in m/s (hover to see current wind gust speed)